Route Details
Sealth
Time Location Temp F Dew point F Wind Dir Wind Speed kts
12:29 AM Vashon -999 -999 117 9
12:28 AM Vashon -999 -999 121 11
12:27 AM Vashon -999 -999 116 10
12:26 AM Vashon -999 -999 110 10
12:25 AM Vashon -999 -999 116 9
12:24 AM Vashon -999 -999 117 10
12:23 AM Vashon -999 -999 117 10
12:22 AM Vashon -999 -999 115 9
12:21 AM Vashon -999 -999 120 11
12:04 AM Vashon -999 -999 123 11
12:03 AM Vashon -999 -999 119 11
12:02 AM Vashon -999 -999 114 12
12:01 AM Vashon -999 -999 116 11
12:00 AM Vashon -999 -999 101 9
11:44 PM Vashon -999 -999 126 10
11:43 PM Vashon -999 -999 131 7
11:42 PM Vashon -999 -999 138 10
11:41 PM Vashon -999 -999 124 9
11:40 PM Vashon -999 -999 119 10
11:39 PM Vashon -999 -999 124 10
11:38 PM Vashon -999 -999 117 12
11:37 PM Vashon -999 -999 112 13
11:36 PM Vashon -999 -999 125 12
11:35 PM Vashon -999 -999 109 13
11:34 PM Vashon -999 -999 116 13
11:33 PM Vashon -999 -999 118 13
11:32 PM Vashon -999 -999 110 15
11:31 PM Vashon -999 -999 105 19
11:30 PM Vashon -999 -999 103 18
11:29 PM Vashon -999 -999 105 19
11:28 PM Vashon -999 -999 109 16
11:27 PM Vashon -999 -999 101 15
11:26 PM Vashon -999 -999 108 16
11:25 PM Vashon -999 -999 112 17
11:24 PM Vashon -999 -999 99 16
11:23 PM Vashon -999 -999 111 10
11:22 PM Vashon -999 -999 104 3
11:21 PM Vashon -999 -999 99 5
11:20 PM Vashon -999 -999 143 7
11:19 PM Vashon -999 -999 141 7
11:18 PM Vashon -999 -999 143 8
11:17 PM Vashon -999 -999 166 6
11:16 PM Vashon -999 -999 137 8
11:15 PM Vashon -999 -999 133 6
11:14 PM Vashon -999 -999 137 7
11:13 PM 47.5115 -122.4629 -999 -999 139 7
11:12 PM Vashon -999 -999 134 7
11:11 PM 47.5115 -122.4629 -999 -999 132 5
11:10 PM Vashon -999 -999 125 5
11:09 PM Vashon -999 -999 152 6
11:08 PM 47.5115 -122.4629 -999 -999 138 8
11:07 PM Vashon -999 -999 152 9
11:06 PM Vashon -999 -999 130 8
11:05 PM Vashon -999 -999 134 6
11:04 PM Vashon -999 -999 134 5
11:03 PM Vashon -999 -999 151 4
11:02 PM Vashon -999 -999 129 4
11:01 PM Vashon -999 -999 140 4
11:00 PM Vashon -999 -999 145 2
10:59 PM Vashon -999 -999 141 4
10:58 PM Vashon -999 -999 144 3
10:57 PM Vashon -999 -999 141 3
10:56 PM Vashon -999 -999 135 3
10:55 PM Vashon -999 -999 153 3
10:54 PM Vashon -999 -999 146 4
10:53 PM Vashon -999 -999 128 5
10:52 PM Vashon -999 -999 132 4
10:51 PM Vashon -999 -999 178 3
10:50 PM Vashon -999 -999 140 4
10:49 PM Vashon -999 -999 131 5
10:48 PM Vashon -999 -999 113 5
10:47 PM Vashon -999 -999 103 6
10:46 PM Vashon -999 -999 135 3
10:45 PM Vashon -999 -999 138 4
10:44 PM Vashon -999 -999 173 4
10:43 PM Vashon -999 -999 134 6
10:42 PM Vashon -999 -999 138 8
10:41 PM Vashon -999 -999 109 5
10:40 PM Vashon -999 -999 147 7
10:39 PM Vashon -999 -999 133 4
10:38 PM Vashon -999 -999 166 3
10:37 PM Vashon -999 -999 136 4
10:36 PM Vashon -999 -999 133 7
10:35 PM Vashon -999 -999 116 7
10:34 PM Vashon -999 -999 129 8
10:33 PM Vashon -999 -999 137 8
10:32 PM Vashon -999 -999 144 9
10:31 PM Vashon -999 -999 132 10
10:30 PM Vashon -999 -999 130 10
10:29 PM Vashon -999 -999 118 11
10:28 PM Vashon -999 -999 109 11
10:27 PM Vashon -999 -999 123 12
10:26 PM Vashon -999 -999 120 11
10:25 PM Vashon -999 -999 129 10
10:24 PM Vashon -999 -999 123 9
10:23 PM Vashon -999 -999 123 9
10:22 PM Vashon -999 -999 116 11
10:21 PM Vashon -999 -999 118 10
10:20 PM Vashon -999 -999 112 8
10:19 PM Vashon -999 -999 108 9
10:18 PM Vashon -999 -999 114 9
10:17 PM Vashon -999 -999 116 10
10:16 PM Vashon -999 -999 116 11
10:15 PM Vashon -999 -999 116 8
10:14 PM Vashon -999 -999 149 8
10:13 PM Vashon -999 -999 145 8
10:12 PM Vashon -999 -999 107 7
10:11 PM Vashon -999 -999 125 6
10:10 PM Vashon -999 -999 121 7
10:09 PM Vashon -999 -999 132 9
10:08 PM Vashon -999 -999 106 10
10:07 PM Vashon -999 -999 117 6
10:06 PM Vashon -999 -999 115 5
10:05 PM Vashon -999 -999 119 3
10:04 PM Vashon -999 -999 123 2
10:03 PM Vashon -999 -999 158 2
10:02 PM Vashon -999 -999 174 1
10:01 PM Vashon -999 -999 164 2
10:00 PM Vashon -999 -999 182 1
9:59 PM Vashon -999 -999 226 1
9:58 PM Vashon -999 -999 198 2
9:57 PM Vashon -999 -999 234 2
9:56 PM 47.5115 -122.4629 -999 -999 301 3
9:55 PM 47.5115 -122.4629 -999 -999 196 2
9:54 PM Vashon -999 -999 189 1
9:53 PM Vashon -999 -999 280 1
9:52 PM Vashon -999 -999 194 2
9:51 PM Vashon -999 -999 16 4
9:50 PM Vashon -999 -999 229 1
9:49 PM Vashon -999 -999 206 2
9:48 PM Vashon -999 -999 219 5
9:47 PM Vashon -999 -999 222 3
9:46 PM Vashon -999 -999 232 3
9:45 PM Vashon -999 -999 204 3
9:44 PM Vashon -999 -999 266 2
9:43 PM Vashon -999 -999 238 4
9:42 PM Vashon -999 -999 266 6
9:41 PM Vashon -999 -999 242 3
9:40 PM Vashon -999 -999 281 4
9:39 PM Vashon -999 -999 279 4
9:38 PM Vashon -999 -999 274 5
9:37 PM Vashon -999 -999 237 6
9:36 PM Vashon -999 -999 227 3
9:35 PM Vashon -999 -999 227 4
9:34 PM Vashon -999 -999 194 3
9:33 PM Vashon -999 -999 180 6
9:32 PM Vashon -999 -999 244 5
9:31 PM Vashon -999 -999 247 4
9:30 PM Vashon -999 -999 208 8